星链-5245 (STARLINK-5245 )

导读

STARLINK-5245是美国太空探索技术公司(SpaceX)星链(Starlink)项目的卫星,于2022年10月28日发射升空。星链计划旨在构建全球卫星互联网星座,为全球提供高速互联网接入服务。该卫星是星链星座批量发射任务中的一员,入轨后参与低轨卫星通信组网,服务全球用户的网络连接需求。

Basic Information
目录编号:
54168
目录名称:
STARLINK-5245
国际标识:
2022-141M
轨道中心:
EARTH
卫星名称:
星链-5245
卫星全名:
星链-5245 (STARLINK-5245 )
卫星状态:
在轨 (已飞行1417 天)
发射日期:
2022-10-28 UTC
国别 :
美国 (US)
星等 :
--
This satellite is enrolled in the Space Conjunction Data Service (SCDS) and the current flight risk assessment level is: High Risk
Orbit Information
数据来源 国际轨道数据 AOE轨道数据
星历时间 2026-09-13T13:14:51+0800
1天前
查看轨道信息
2026-09-10T23:00:00+0800
4天前
查看轨道信息
半长轴 6840.872km 6840.885km
偏心率 0.0000825 0.000142
轨道倾角 53.159° 53.157°
近地点辐角 92.040° 23.210°
升交点赤经 227.934° 240.066°
平近点角 268.070° 42.088°
近地点 462.17km 461.776km
远地点 463.3km 463.72km
周期 93.848分钟 93.849分钟
每日圈数 15.343896 15.343851
Detailed Information
固有亮度:
5
最大亮度:
2.5
卫星平台:
Starlink v1.5
覆盖范围:
全球
运营商:
太空探索技术公司
运营商所在国:
美国
制造商(研发单位):
太空探索技术公司
制造商所在国:
美国
使用方式:
暂无
Satellite Introduction
星链(Starlink)计划是由太空探索技术公司(SpaceX)提出的一个巨型低轨卫星互联网星座项目,计划在2019年至2024年间在太空搭建由约1.2万颗卫星组成的“星链”网络,其中1584颗将部署在地球上空550千米处的近地轨道,并从2020年开始工作。该卫星仍在工作。
2D Orbit Map
3D Orbit Map
Orbit Altitude Analysis Chart
Orbit Inclination Analysis Chart
Orbit Comprehensive Analysis Chart
View Comprehensive Chart
Conjunction Data List
Event ID Objects TCA Miss Dist (km) Collision Risk Probability Collision Risk Index (CRI) Action
CDM_260915-122205-416806-421221
2026-09-15T
12:22:39+0000
0.505 km
远距离
6.362229E-5 中风险 0.71
CDM_260916-105505-416806-281621
2026-09-16T
10:55:02+0000
1.112 km
极远距离
1.125233E-5 中风险 0.56
CDM_260916-074605-416806-564121
2026-09-16T
07:46:59+0000
1.177 km
极远距离
9.582481E-6 低风险 0.55
CDM_260915-100105-416806-421221
2026-09-15T
10:01:58+0000
0.950 km
远距离
8.53555E-6 低风险 0.54
CDM_260916-004505-416806-281621
2026-09-16T
00:45:23+0000
1.361 km
极远距离
5.656228E-6 低风险 0.5
CDM_260915-151905-416805-973021
2026-09-15T
15:19:36+0000
1.407 km
极远距离
2.912135E-6 低风险 0.44
CDM_260916-021805-416806-564121
2026-09-16T
02:18:43+0000
2.129 km
极远距离
1.624276E-6 低风险 0.39
CDM_260916-021905-416806-281621
2026-09-16T
02:19:10+0000
2.238 km
极远距离
1.413588E-6 低风险 0.38
CDM_260916-004405-416806-564121
2026-09-16T
00:44:56+0000
2.599 km
极远距离
1.110771E-6 低风险 0.36
CDM_260916-092105-416806-281621
2026-09-16T
09:21:14+0000
2.600 km
极远距离
1.076952E-6 低风险 0.36
Miss Distance Evolution Trend with All Objects Subscribe to Flight Safety Assessment
Collision Probability Evolution Trend with All Objects Subscribe to Flight Safety Assessment